Year,Month,Day,Hour,Minute,Value (Times are PST for temperature in C)
2002,05,03,00,00,6.90
2002,05,03,00,01,6.90
2002,05,03,00,02,6.90
2002,05,03,00,03,6.80
2002,05,03,00,04,6.90
2002,05,03,00,05,6.90
2002,05,03,00,06,6.90
2002,05,03,00,07,6.90
2002,05,03,00,08,6.90
2002,05,03,00,09,6.90
2002,05,03,00,10,6.90
2002,05,03,00,11,6.80
2002,05,03,00,12,6.80
2002,05,03,00,13,6.90
2002,05,03,00,14,6.90
2002,05,03,00,15,6.90
2002,05,03,00,16,6.90
2002,05,03,00,17,6.90
2002,05,03,00,18,7.00
2002,05,03,00,19,7.00
2002,05,03,00,20,7.00
2002,05,03,00,21,7.00
2002,05,03,00,22,6.90
2002,05,03,00,23,6.90
2002,05,03,00,24,6.90
2002,05,03,00,25,6.90
2002,05,03,00,26,6.90
2002,05,03,00,27,6.90
2002,05,03,00,28,6.90
2002,05,03,00,29,6.90
2002,05,03,00,30,6.90
2002,05,03,00,31,6.90
2002,05,03,00,32,6.80
2002,05,03,00,33,6.80
2002,05,03,00,34,6.90
2002,05,03,00,35,6.90
2002,05,03,00,36,6.90
2002,05,03,00,37,6.80
2002,05,03,00,38,6.90
2002,05,03,00,39,6.80
2002,05,03,00,40,6.80
2002,05,03,00,41,6.80
2002,05,03,00,42,6.90
2002,05,03,00,43,6.80
2002,05,03,00,44,6.80
2002,05,03,00,45,6.80
2002,05,03,00,46,6.90
2002,05,03,00,47,6.90
2002,05,03,00,48,6.90
2002,05,03,00,49,6.90
2002,05,03,00,50,6.90
2002,05,03,00,51,6.90
2002,05,03,00,52,6.80
2002,05,03,00,53,6.80
2002,05,03,00,54,6.80
2002,05,03,00,55,6.80
2002,05,03,00,56,6.80
2002,05,03,00,57,6.70
2002,05,03,00,58,6.70
2002,05,03,00,59,6.60
2002,05,03,01,00,6.60
2002,05,03,01,01,6.60
2002,05,03,01,02,6.60
2002,05,03,01,03,6.60
2002,05,03,01,04,6.60
2002,05,03,01,05,6.60
2002,05,03,01,06,6.50
2002,05,03,01,07,6.60
2002,05,03,01,08,6.60
2002,05,03,01,09,6.60
2002,05,03,01,10,6.60
2002,05,03,01,11,6.60
2002,05,03,01,12,6.60
2002,05,03,01,13,6.60
2002,05,03,01,14,6.60
2002,05,03,01,15,6.60
2002,05,03,01,16,6.60
2002,05,03,01,17,6.50
2002,05,03,01,18,6.40
2002,05,03,01,19,6.40
2002,05,03,01,20,6.30
2002,05,03,01,21,6.20
2002,05,03,01,22,6.20
2002,05,03,01,23,6.10
2002,05,03,01,24,6.00
2002,05,03,01,25,5.90
2002,05,03,01,26,5.90
2002,05,03,01,27,5.80
2002,05,03,01,28,5.70
2002,05,03,01,29,5.70
2002,05,03,01,30,5.70
2002,05,03,01,31,5.60
2002,05,03,01,32,5.60
2002,05,03,01,33,5.60
2002,05,03,01,34,5.60
2002,05,03,01,35,5.60
2002,05,03,01,36,5.50
2002,05,03,01,37,5.50
2002,05,03,01,38,5.50
2002,05,03,01,39,5.40
2002,05,03,01,40,5.40
2002,05,03,01,41,5.30
2002,05,03,01,42,5.30
2002,05,03,01,43,5.30
2002,05,03,01,44,5.30
2002,05,03,01,45,5.30
2002,05,03,01,46,5.30
2002,05,03,01,47,5.30
2002,05,03,01,48,5.30
2002,05,03,01,49,5.40
2002,05,03,01,50,5.50
2002,05,03,01,51,5.50
2002,05,03,01,52,5.60
2002,05,03,01,53,5.60
2002,05,03,01,54,5.70
2002,05,03,01,55,5.70
2002,05,03,01,56,5.70
2002,05,03,01,57,5.70
2002,05,03,01,58,5.70
2002,05,03,01,59,5.70
2002,05,03,02,00,5.70
2002,05,03,02,01,5.70
2002,05,03,02,02,5.70
2002,05,03,02,03,5.70
2002,05,03,02,04,5.70
2002,05,03,02,05,5.60
2002,05,03,02,06,5.60
2002,05,03,02,07,5.60
2002,05,03,02,08,5.50
2002,05,03,02,09,5.50
2002,05,03,02,10,5.50
2002,05,03,02,11,5.40
2002,05,03,02,12,5.40
2002,05,03,02,13,5.40
2002,05,03,02,14,5.40
2002,05,03,02,15,5.30
2002,05,03,02,16,5.30
2002,05,03,02,17,5.30
2002,05,03,02,18,5.20
2002,05,03,02,19,5.10
2002,05,03,02,20,5.00
2002,05,03,02,21,4.90
2002,05,03,02,22,4.80
2002,05,03,02,23,4.80
2002,05,03,02,24,4.70
2002,05,03,02,25,4.70
2002,05,03,02,26,4.60
2002,05,03,02,27,4.60
2002,05,03,02,28,4.60
2002,05,03,02,29,4.60
2002,05,03,02,30,4.60
2002,05,03,02,31,4.60
2002,05,03,02,32,4.60
2002,05,03,02,33,4.60
2002,05,03,02,34,4.60
2002,05,03,02,35,4.60
2002,05,03,02,36,4.60
2002,05,03,02,37,4.60
2002,05,03,02,38,4.60
2002,05,03,02,39,4.50
2002,05,03,02,40,4.50
2002,05,03,02,41,4.50
2002,05,03,02,42,4.40
2002,05,03,02,43,4.40
2002,05,03,02,44,4.40
2002,05,03,02,45,4.40
2002,05,03,02,46,4.30
2002,05,03,02,47,4.30
2002,05,03,02,48,4.30
2002,05,03,02,49,4.20
2002,05,03,02,50,4.20
2002,05,03,02,51,4.20
2002,05,03,02,52,4.20
2002,05,03,02,53,4.20
2002,05,03,02,54,4.20
2002,05,03,02,55,4.20
2002,05,03,02,56,4.20
2002,05,03,02,57,4.20
2002,05,03,02,58,4.20
2002,05,03,02,59,4.20
2002,05,03,03,00,4.20
2002,05,03,03,01,4.20
2002,05,03,03,02,4.20
2002,05,03,03,03,4.20
2002,05,03,03,04,4.20
2002,05,03,03,05,4.20
2002,05,03,03,06,4.20
2002,05,03,03,07,4.20
2002,05,03,03,08,4.20
2002,05,03,03,09,4.20
2002,05,03,03,10,4.20
2002,05,03,03,11,4.30
2002,05,03,03,12,4.30
2002,05,03,03,13,4.30
2002,05,03,03,14,4.30
2002,05,03,03,15,4.40
2002,05,03,03,16,4.40
2002,05,03,03,17,4.40
2002,05,03,03,18,4.40
2002,05,03,03,19,4.40
2002,05,03,03,20,4.40
2002,05,03,03,21,4.50
2002,05,03,03,22,4.50
2002,05,03,03,23,4.50
2002,05,03,03,24,4.50
2002,05,03,03,25,4.50
2002,05,03,03,26,4.50
2002,05,03,03,27,4.50
2002,05,03,03,28,4.50
2002,05,03,03,29,4.50
2002,05,03,03,30,4.40
2002,05,03,03,31,4.40
2002,05,03,03,32,4.40
2002,05,03,03,33,4.40
2002,05,03,03,34,4.40
2002,05,03,03,35,4.40
2002,05,03,03,36,4.40
2002,05,03,03,37,4.40
2002,05,03,03,38,4.40
2002,05,03,03,39,4.40
2002,05,03,03,40,4.40
2002,05,03,03,41,4.50
2002,05,03,03,42,4.50
2002,05,03,03,43,4.50
2002,05,03,03,44,4.50
2002,05,03,03,45,4.50
2002,05,03,03,46,4.50
2002,05,03,03,47,4.50
2002,05,03,03,48,4.40
2002,05,03,03,49,4.40
2002,05,03,03,50,4.40
2002,05,03,03,51,4.40
2002,05,03,03,52,4.40
2002,05,03,03,53,4.40
2002,05,03,03,54,4.40
2002,05,03,03,55,4.40
2002,05,03,03,56,4.40
2002,05,03,03,57,4.40
2002,05,03,03,58,4.40
2002,05,03,03,59,4.40
2002,05,03,04,00,4.40
2002,05,03,04,01,4.40
2002,05,03,04,02,4.40
2002,05,03,04,03,4.40
2002,05,03,04,04,4.40
2002,05,03,04,05,4.40
2002,05,03,04,06,4.40
2002,05,03,04,07,4.40
2002,05,03,04,08,4.30
2002,05,03,04,09,4.40
2002,05,03,04,10,4.40
2002,05,03,04,11,4.40
2002,05,03,04,12,4.30
2002,05,03,04,13,4.30
2002,05,03,04,14,4.30
2002,05,03,04,15,4.30
2002,05,03,04,16,4.30
2002,05,03,04,17,4.30
2002,05,03,04,18,4.20
2002,05,03,04,19,4.20
2002,05,03,04,20,4.20
2002,05,03,04,21,4.20
2002,05,03,04,22,4.20
2002,05,03,04,23,4.10
2002,05,03,04,24,4.10
2002,05,03,04,25,4.00
2002,05,03,04,26,4.00
2002,05,03,04,27,3.90
2002,05,03,04,28,3.80
2002,05,03,04,29,3.80
2002,05,03,04,30,3.80
2002,05,03,04,31,3.70
2002,05,03,04,32,3.70
2002,05,03,04,33,3.70
2002,05,03,04,34,3.60
2002,05,03,04,35,3.60
2002,05,03,04,36,3.50
2002,05,03,04,37,3.50
2002,05,03,04,38,3.50
2002,05,03,04,39,3.50
2002,05,03,04,40,3.50
2002,05,03,04,41,3.50
2002,05,03,04,42,3.50
2002,05,03,04,43,3.40
2002,05,03,04,44,3.40
2002,05,03,04,45,3.40
2002,05,03,04,46,3.40
2002,05,03,04,47,3.40
2002,05,03,04,48,3.40
2002,05,03,04,49,3.50
2002,05,03,04,50,3.50
2002,05,03,04,51,3.50
2002,05,03,04,52,3.40
2002,05,03,04,53,3.40
2002,05,03,04,54,3.40
2002,05,03,04,55,3.40
2002,05,03,04,56,3.40
2002,05,03,04,57,3.40
2002,05,03,04,58,3.40
2002,05,03,04,59,3.40
2002,05,03,05,00,3.40
2002,05,03,05,01,3.30
2002,05,03,05,02,3.30
2002,05,03,05,03,3.30
2002,05,03,05,04,3.30
2002,05,03,05,05,3.30
2002,05,03,05,06,3.20
2002,05,03,05,07,3.20
2002,05,03,05,08,3.20
2002,05,03,05,09,3.20
2002,05,03,05,10,3.20
2002,05,03,05,11,3.30
2002,05,03,05,12,3.30
2002,05,03,05,13,3.30
2002,05,03,05,14,3.30
2002,05,03,05,15,3.20
2002,05,03,05,16,3.10
2002,05,03,05,17,3.10
2002,05,03,05,18,3.10
2002,05,03,05,19,3.10
2002,05,03,05,20,3.10
2002,05,03,05,21,3.10
2002,05,03,05,22,3.10
2002,05,03,05,23,3.10
2002,05,03,05,24,3.10
2002,05,03,05,25,3.10
2002,05,03,05,26,3.10
2002,05,03,05,27,3.10
2002,05,03,05,28,3.10
2002,05,03,05,29,3.20
2002,05,03,05,30,3.30
2002,05,03,05,31,3.40
2002,05,03,05,32,3.50
2002,05,03,05,33,3.60
2002,05,03,05,34,3.60
2002,05,03,05,35,3.50
2002,05,03,05,36,3.50
2002,05,03,05,37,3.50
2002,05,03,05,38,3.50
2002,05,03,05,39,3.50
2002,05,03,05,40,3.50
2002,05,03,05,41,3.50
2002,05,03,05,42,3.50
2002,05,03,05,43,3.40
2002,05,03,05,44,3.40
2002,05,03,05,45,3.30
2002,05,03,05,46,3.30
2002,05,03,05,47,3.30
2002,05,03,05,48,3.30
2002,05,03,05,49,3.20
2002,05,03,05,50,3.20
2002,05,03,05,51,3.10
2002,05,03,05,52,3.10
2002,05,03,05,53,3.10
2002,05,03,05,54,3.00
2002,05,03,05,55,2.90
2002,05,03,05,56,2.90
2002,05,03,05,57,2.90
2002,05,03,05,58,2.90
2002,05,03,05,59,2.90
2002,05,03,06,00,2.90
2002,05,03,06,01,2.90
2002,05,03,06,02,2.90
2002,05,03,06,03,3.00
2002,05,03,06,04,3.10
2002,05,03,06,05,3.10
2002,05,03,06,06,3.10
2002,05,03,06,07,3.10
2002,05,03,06,08,3.10
2002,05,03,06,09,3.00
2002,05,03,06,10,2.90
2002,05,03,06,11,3.00
2002,05,03,06,12,3.10
2002,05,03,06,13,3.10
2002,05,03,06,14,3.10
2002,05,03,06,15,3.10
2002,05,03,06,16,3.20
2002,05,03,06,17,3.20
2002,05,03,06,18,3.30
2002,05,03,06,19,3.30
2002,05,03,06,20,3.30
2002,05,03,06,21,3.30
2002,05,03,06,22,3.30
2002,05,03,06,23,3.30
2002,05,03,06,24,3.20
2002,05,03,06,25,3.20
2002,05,03,06,26,3.20
2002,05,03,06,27,3.20
2002,05,03,06,28,3.20
2002,05,03,06,29,3.20
2002,05,03,06,30,3.30
2002,05,03,06,31,3.30
2002,05,03,06,32,3.30
2002,05,03,06,33,3.30
2002,05,03,06,34,3.40
2002,05,03,06,35,3.50
2002,05,03,06,36,3.50
2002,05,03,06,37,3.60
2002,05,03,06,38,3.60
2002,05,03,06,39,3.70
2002,05,03,06,40,3.70
2002,05,03,06,41,3.80
2002,05,03,06,42,3.90
2002,05,03,06,43,4.00
2002,05,03,06,44,4.10
2002,05,03,06,45,4.20
2002,05,03,06,46,4.30
2002,05,03,06,47,4.50
2002,05,03,06,48,4.60
2002,05,03,06,49,4.70
2002,05,03,06,50,4.80
2002,05,03,06,51,4.80
2002,05,03,06,52,4.80
2002,05,03,06,53,4.90
2002,05,03,06,54,4.90
2002,05,03,06,55,4.90
2002,05,03,06,56,5.10
2002,05,03,06,57,5.10
2002,05,03,06,58,5.10
2002,05,03,06,59,5.20
2002,05,03,07,00,5.30
2002,05,03,07,01,5.30
2002,05,03,07,02,5.30
2002,05,03,07,03,5.40
2002,05,03,07,04,5.50
2002,05,03,07,05,5.60
2002,05,03,07,06,5.70
2002,05,03,07,07,5.70
2002,05,03,07,08,5.80
2002,05,03,07,09,5.90
2002,05,03,07,10,6.00
2002,05,03,07,11,6.10
2002,05,03,07,12,6.20
2002,05,03,07,13,6.30
2002,05,03,07,14,6.30
2002,05,03,07,15,6.40
2002,05,03,07,16,6.40
2002,05,03,07,17,6.50
2002,05,03,07,18,6.60
2002,05,03,07,19,6.70
2002,05,03,07,20,6.80
2002,05,03,07,21,6.80
2002,05,03,07,22,6.90
2002,05,03,07,23,6.90
2002,05,03,07,24,6.90
2002,05,03,07,25,6.90
2002,05,03,07,26,6.90
2002,05,03,07,27,6.90
2002,05,03,07,28,6.90
2002,05,03,07,29,6.90
2002,05,03,07,30,6.90
2002,05,03,07,31,7.00
2002,05,03,07,32,7.00
2002,05,03,07,33,7.10
2002,05,03,07,34,7.10
2002,05,03,07,35,7.20
2002,05,03,07,36,7.20
2002,05,03,07,37,7.30
2002,05,03,07,38,7.30
2002,05,03,07,39,7.40
2002,05,03,07,40,7.40
2002,05,03,07,41,7.40
2002,05,03,07,42,7.50
2002,05,03,07,43,7.60
2002,05,03,07,44,7.60
2002,05,03,07,45,7.60
2002,05,03,07,46,7.60
2002,05,03,07,47,7.60
2002,05,03,07,48,7.60
2002,05,03,07,49,7.60
2002,05,03,07,50,7.50
2002,05,03,07,51,7.50
2002,05,03,07,52,7.40
2002,05,03,07,53,7.40
2002,05,03,07,54,7.30
2002,05,03,07,55,7.30
2002,05,03,07,56,7.30
2002,05,03,07,57,7.30
2002,05,03,07,58,7.30
2002,05,03,07,59,7.30
2002,05,03,08,00,7.30
2002,05,03,08,01,7.30
2002,05,03,08,02,7.30
2002,05,03,08,03,7.30
2002,05,03,08,04,7.30
2002,05,03,08,05,7.30
2002,05,03,08,06,7.30
2002,05,03,08,07,7.40
2002,05,03,08,08,7.40
2002,05,03,08,09,7.40
2002,05,03,08,10,7.40
2002,05,03,08,11,7.50
2002,05,03,08,12,7.50
2002,05,03,08,13,7.60
2002,05,03,08,14,7.60
2002,05,03,08,15,7.60
2002,05,03,08,16,7.70
2002,05,03,08,17,7.70
2002,05,03,08,18,7.70
2002,05,03,08,19,7.70
2002,05,03,08,20,7.70
2002,05,03,08,21,7.70
2002,05,03,08,22,7.60
2002,05,03,08,23,7.60
2002,05,03,08,24,7.60
2002,05,03,08,25,7.60
2002,05,03,08,26,7.70
2002,05,03,08,27,7.70
2002,05,03,08,28,7.70
2002,05,03,08,29,7.80
2002,05,03,08,30,7.80
2002,05,03,08,31,7.80
2002,05,03,08,32,7.90
2002,05,03,08,33,7.90
2002,05,03,08,34,8.00
2002,05,03,08,35,8.00
2002,05,03,08,36,8.10
2002,05,03,08,37,8.10
2002,05,03,08,38,8.10
2002,05,03,08,39,8.10
2002,05,03,08,40,8.20
2002,05,03,08,41,8.20
2002,05,03,08,42,8.40
2002,05,03,08,43,8.40
2002,05,03,08,44,8.40
2002,05,03,08,45,8.50
2002,05,03,08,46,8.60
2002,05,03,08,47,8.60
2002,05,03,08,48,8.70
2002,05,03,08,49,8.80
2002,05,03,08,50,8.90
2002,05,03,08,51,8.90
2002,05,03,08,52,8.90
2002,05,03,08,53,8.90
2002,05,03,08,54,9.00
2002,05,03,08,55,9.00
2002,05,03,08,56,9.00
2002,05,03,08,57,9.00
2002,05,03,08,58,9.00
2002,05,03,08,59,9.00
2002,05,03,09,00,9.00
2002,05,03,09,01,9.00
2002,05,03,09,02,9.00
2002,05,03,09,03,8.90
2002,05,03,09,04,8.90
2002,05,03,09,05,8.90
2002,05,03,09,06,9.00
2002,05,03,09,07,9.00
2002,05,03,09,08,9.10
2002,05,03,09,09,9.20
2002,05,03,09,10,9.20
2002,05,03,09,11,9.20
2002,05,03,09,12,9.20
2002,05,03,09,13,9.10
2002,05,03,09,14,9.10
2002,05,03,09,15,9.10
2002,05,03,09,16,8.80
2002,05,03,09,17,8.80
2002,05,03,09,18,8.80
2002,05,03,09,19,8.80
2002,05,03,09,20,8.90
2002,05,03,09,21,8.90
2002,05,03,09,22,9.00
2002,05,03,09,23,9.00
2002,05,03,09,24,9.10
2002,05,03,09,25,9.20
2002,05,03,09,26,9.30
2002,05,03,09,27,9.50
2002,05,03,09,28,9.50
2002,05,03,09,29,9.70
2002,05,03,09,30,9.70
2002,05,03,09,31,9.80
2002,05,03,09,32,9.70
2002,05,03,09,33,9.70
2002,05,03,09,34,9.70
2002,05,03,09,35,9.80
2002,05,03,09,36,9.90
2002,05,03,09,37,10.00
2002,05,03,09,38,10.10
2002,05,03,09,39,10.30
2002,05,03,09,40,10.40
2002,05,03,09,41,10.40
2002,05,03,09,42,10.30
2002,05,03,09,43,10.20
2002,05,03,09,44,10.30
2002,05,03,09,45,10.30
2002,05,03,09,46,10.20
2002,05,03,09,47,10.20
2002,05,03,09,48,10.20
2002,05,03,09,49,10.20
2002,05,03,09,50,10.40
2002,05,03,09,51,10.20
2002,05,03,09,52,10.20
2002,05,03,09,53,10.20
2002,05,03,09,54,10.30
2002,05,03,09,55,10.40
2002,05,03,09,56,10.50
2002,05,03,09,57,10.30
2002,05,03,09,58,10.40
2002,05,03,09,59,10.50
2002,05,03,10,00,10.60
2002,05,03,10,01,10.60
2002,05,03,10,02,10.60
2002,05,03,10,03,10.50
2002,05,03,10,04,10.50
2002,05,03,10,05,10.60
2002,05,03,10,06,10.60
2002,05,03,10,07,10.60
2002,05,03,10,08,10.70
2002,05,03,10,09,10.80
2002,05,03,10,10,10.80
2002,05,03,10,11,10.90
2002,05,03,10,12,10.70
2002,05,03,10,13,10.60
2002,05,03,10,14,10.70
2002,05,03,10,15,10.70
2002,05,03,10,16,10.90
2002,05,03,10,17,11.10
2002,05,03,10,18,11.10
2002,05,03,10,19,11.20
2002,05,03,10,20,11.40
2002,05,03,10,21,11.40
2002,05,03,10,22,11.50
2002,05,03,10,23,11.60
2002,05,03,10,24,11.60
2002,05,03,10,25,11.80
2002,05,03,10,26,11.90
2002,05,03,10,27,11.90
2002,05,03,10,28,11.90
2002,05,03,10,29,11.90
2002,05,03,10,30,11.90
2002,05,03,10,31,12.00
2002,05,03,10,32,12.10
2002,05,03,10,33,12.10
2002,05,03,10,34,12.10
2002,05,03,10,35,12.10
2002,05,03,10,36,12.00
2002,05,03,10,37,12.00
2002,05,03,10,38,11.90
2002,05,03,10,39,11.80
2002,05,03,10,40,11.70
2002,05,03,10,41,11.70
2002,05,03,10,42,11.70
2002,05,03,10,43,11.50
2002,05,03,10,44,11.40
2002,05,03,10,45,11.50
2002,05,03,10,46,11.50
2002,05,03,10,47,11.40
2002,05,03,10,48,11.20
2002,05,03,10,49,11.10
2002,05,03,10,50,11.00
2002,05,03,10,51,10.90
2002,05,03,10,52,10.90
2002,05,03,10,53,10.80
2002,05,03,10,54,10.80
2002,05,03,10,55,10.90
2002,05,03,10,56,11.10
2002,05,03,10,57,11.40
2002,05,03,10,58,11.50
2002,05,03,10,59,11.30
2002,05,03,11,00,11.20
2002,05,03,11,01,11.40
2002,05,03,11,02,11.20
2002,05,03,11,03,11.30
2002,05,03,11,04,11.20
2002,05,03,11,05,11.20
2002,05,03,11,06,11.30
2002,05,03,11,07,11.20
2002,05,03,11,08,11.20
2002,05,03,11,09,11.20
2002,05,03,11,10,11.40
2002,05,03,11,11,11.60
2002,05,03,11,12,11.80
2002,05,03,11,13,11.60
2002,05,03,11,14,11.70
2002,05,03,11,15,11.60
2002,05,03,11,16,11.60
2002,05,03,11,17,11.10
2002,05,03,11,18,10.90
2002,05,03,11,19,10.90
2002,05,03,11,20,10.70
2002,05,03,11,21,10.80
2002,05,03,11,22,10.70
2002,05,03,11,23,10.70
2002,05,03,11,24,10.90
2002,05,03,11,25,11.20
2002,05,03,11,26,11.40
2002,05,03,11,27,11.60
2002,05,03,11,28,11.30
2002,05,03,11,29,11.20
2002,05,03,11,30,11.20
2002,05,03,11,31,11.30
2002,05,03,11,32,11.50
2002,05,03,11,33,11.50
2002,05,03,11,34,11.60
2002,05,03,11,35,11.70
2002,05,03,11,36,11.80
2002,05,03,11,37,11.90
2002,05,03,11,38,11.90
2002,05,03,11,39,11.80
2002,05,03,11,40,11.80
2002,05,03,11,41,11.70
2002,05,03,11,42,11.70
2002,05,03,11,43,11.80
2002,05,03,11,44,11.50
2002,05,03,11,45,11.10
2002,05,03,11,46,10.90
2002,05,03,11,47,10.50
2002,05,03,11,48,10.40
2002,05,03,11,49,10.10
2002,05,03,11,50,10.00
2002,05,03,11,51,10.10
2002,05,03,11,52,10.00
2002,05,03,11,53,9.90
2002,05,03,11,54,9.80
2002,05,03,11,55,10.10
2002,05,03,11,56,10.20
2002,05,03,11,57,10.10
2002,05,03,11,58,9.90
2002,05,03,11,59,9.90
2002,05,03,12,00,9.90
2002,05,03,12,01,9.80
2002,05,03,12,02,9.70
2002,05,03,12,03,9.70
2002,05,03,12,04,9.90
2002,05,03,12,05,10.00
2002,05,03,12,06,9.90
2002,05,03,12,07,9.90
2002,05,03,12,08,9.90
2002,05,03,12,09,9.90
2002,05,03,12,10,10.00
2002,05,03,12,11,10.00
2002,05,03,12,12,10.20
2002,05,03,12,13,10.30
2002,05,03,12,14,10.30
2002,05,03,12,15,10.40
2002,05,03,12,16,10.20
2002,05,03,12,17,10.30
2002,05,03,12,18,10.20
2002,05,03,12,19,10.10
2002,05,03,12,20,9.80
2002,05,03,12,21,9.90
2002,05,03,12,22,9.90
2002,05,03,12,23,9.70
2002,05,03,12,24,9.80
2002,05,03,12,25,9.90
2002,05,03,12,26,9.80
2002,05,03,12,27,10.10
2002,05,03,12,28,10.10
2002,05,03,12,29,10.30
2002,05,03,12,30,10.30
2002,05,03,12,31,10.30
2002,05,03,12,32,10.10
2002,05,03,12,33,10.10
2002,05,03,12,34,10.00
2002,05,03,12,35,9.90
2002,05,03,12,36,10.00
2002,05,03,12,37,10.10
2002,05,03,12,38,10.20
2002,05,03,12,39,10.40
2002,05,03,12,40,10.50
2002,05,03,12,41,10.60
2002,05,03,12,42,10.70
2002,05,03,12,43,10.60
2002,05,03,12,44,10.40
2002,05,03,12,45,10.20
2002,05,03,12,46,10.10
2002,05,03,12,47,10.10
2002,05,03,12,48,10.20
2002,05,03,12,49,10.10
2002,05,03,12,50,10.10
2002,05,03,12,51,10.30
2002,05,03,12,52,10.30
2002,05,03,12,53,10.10
2002,05,03,12,54,10.10
2002,05,03,12,55,10.10
2002,05,03,12,56,10.40
2002,05,03,12,57,10.40
2002,05,03,12,58,10.50
2002,05,03,12,59,10.60
2002,05,03,13,00,10.60
2002,05,03,13,01,10.40
2002,05,03,13,02,10.40
2002,05,03,13,03,10.40
2002,05,03,13,04,10.20
2002,05,03,13,05,10.20
2002,05,03,13,06,10.40
2002,05,03,13,07,10.60
2002,05,03,13,08,10.70
2002,05,03,13,09,10.70
2002,05,03,13,10,10.50
2002,05,03,13,11,10.20
2002,05,03,13,12,10.10
2002,05,03,13,13,10.30
2002,05,03,13,14,10.50
